Weather History for MHSC - August, 2013

Change the Weather History Date:

Saturday, August 31, 2013

  Actual Average (MHTG) Record (MHTG)
Temperature  
Mean Temperature 75 °F -  
Max Temperature 83 °F 82 °F 87 °F (2006)
Min Temperature 67 °F 62 °F 35 °F (2007)
Cooling Degree Days 10    
Growing Degree Days 25 (Base 50)    
Moisture  
Dew Point 70 °F    
Average Humidity 90    
Maximum Humidity 100    
Minimum Humidity 53    
Precipitation  
Precipitation 0.01 in - - ()
Sea Level Pressure  
Sea Level Pressure 29.94 in    
Wind  
Wind Speed 3 mph ()    
Max Wind Speed 26 mph    
Max Gust Speed 33 mph    
Visibility 5.5 miles    
Events Rain , Thunderstorm    
Averages and records for this station are not official NWS values.
T = Trace of Precipitation, MM = Missing Value Source: Averaged Metar Reports

Daily Weather History Graph

Daily Weather History Graph

Search for Another Location

Airport or City:

Trip Planner

Search our weather history database for the weather conditions in past years. The results will help you decide how hot, cold, wet, or windy it might be!

Date:

Astronomy

Aug. 31, 2013 Rise Set
Actual Time 5:38 AM CST 6:02 PM CST
Civil Twilight 5:16 AM CST 6:24 PM CST
Nautical Twilight 4:51 AM CST 6:49 PM CST
Astronomical Twilight 4:26 AM CST 7:14 PM CST
Moon 1:33 AM CST (8/31) 2:36 PM CST (8/31)
Length of Visible Light 13h 07m
Length of Day
12h 24m
Waning Crescent, 20% of the Moon is Illuminated
Aug 31
Waning Crescent
Sep 5
New
Sep 12
First Quarter
Sep 19
Full
Sep 26
Last Quarter

Hourly Weather History & Observations

Time (CST) Temp. Heat Index Dew Point Humidity Pressure Visibility Wind Dir Wind Speed Gust Speed Precip Events Conditions
12:00 AM 71.6 °F - 71.6 °F 100% 30.01 in 6.2 mi Calm Calm - N/A   Overcast
12:58 AM 71.8 °F - 71.2 °F 98% 29.86 in 6.2 mi NE 1.2 mph - 0.00 in   Overcast
1:43 AM 71.6 °F - 71.6 °F 100% 29.97 in 6.2 mi SW 1.2 mph - N/A   Overcast
1:58 AM 71.2 °F - 71.1 °F 99% 29.85 in 6.2 mi Calm Calm - N/A   Overcast
2:48 AM 71.6 °F - 69.8 °F 94% 29.97 in 6.2 mi South 2.3 mph - N/A   Overcast
2:53 AM 69.8 °F - 69.8 °F 100% 29.97 in 6.2 mi SW 2.3 mph - N/A   Overcast
2:58 AM 70.7 °F - 70.3 °F 99% 29.86 in 6.2 mi SW 2.3 mph - N/A   Overcast
3:38 AM 69.8 °F - 69.8 °F 100% 29.97 in 6.2 mi Calm Calm - N/A   Overcast
3:58 AM 70.7 °F - 70.3 °F 99% 29.87 in 6.2 mi East 1.2 mph - N/A   Overcast
4:28 AM 71.6 °F - 71.6 °F 100% 29.98 in 6.2 mi Calm Calm - N/A   Overcast
4:38 AM 71.6 °F - 71.6 °F 100% 29.98 in 6.2 mi Calm Calm - N/A   Overcast
4:53 AM 71.6 °F - 71.6 °F 100% 29.98 in 6.2 mi WSW 2.3 mph - N/A   Overcast
4:58 AM 71.1 °F - 70.7 °F 99% 29.88 in 6.2 mi WSW 2.3 mph - N/A   Overcast
5:38 AM 69.8 °F - 69.8 °F 100% 29.98 in 6.2 mi SSW 2.3 mph - N/A   Mostly Cloudy
5:58 AM 70.2 °F - 69.8 °F 99% 29.89 in 6.2 mi ESE 2.3 mph - N/A   Overcast
6:00 AM 68 °F - 68 °F 99%  in 6 mi Calm Calm - -   Mist
6:48 AM 71.6 °F - 69.8 °F 94% 30.00 in 6.2 mi Calm Calm - N/A   Overcast
6:58 AM 70.9 °F - 70.5 °F 99% 29.92 in 6.2 mi Calm Calm - N/A   Overcast
7:48 AM 73.4 °F - 71.6 °F 94% 30.02 in 6.2 mi Variable 2.3 mph - N/A   Overcast
7:53 AM 73.4 °F - 73.4 °F 100% 30.02 in 6.2 mi SW 2.3 mph - N/A   Overcast
7:58 AM 72.9 °F - 72.5 °F 99% 29.92 in 6.2 mi West 1.2 mph - N/A   Mostly Cloudy
8:38 AM 75.2 °F - 71.6 °F 89% 30.02 in 6.2 mi SW 2.3 mph - N/A   Mostly Cloudy
8:58 AM 76.8 °F - 72.1 °F 85% 29.91 in 6.2 mi Variable 2.3 mph - N/A   Mostly Cloudy
9:13 AM 77.0 °F - 71.6 °F 83% 30.02 in 6.2 mi West 3.5 mph - N/A   Overcast
9:43 AM 78.8 °F - 71.6 °F 78% 30.01 in 6.2 mi Calm Calm - N/A   Scattered Clouds
9:58 AM 78.6 °F - 70.9 °F 77% 29.90 in 6.2 mi Variable 1.2 mph - N/A   Clear
10:58 AM 82.2 °F 86.2 °F 70.3 °F 67% 29.88 in 6.2 mi Calm Calm - N/A   Partly Cloudy
11:58 AM 84.4 °F 89.0 °F 70.3 °F 63% 29.84 in 6.2 mi West 6.9 mph - N/A   Mostly Cloudy
12:00 PM 82 °F - 68 °F 53%  in 9 mi South 3.5 mph - -   Haze
12:58 PM 86.2 °F 90.7 °F 69.6 °F 58% 29.79 in 6.2 mi Variable 6.9 mph - N/A   Scattered Clouds
1:58 PM 85.3 °F 90.4 °F 71.1 °F 62% 29.77 in 6.2 mi ESE 13.8 mph - N/A Thunderstorm Mostly Cloudy
2:01 PM 82.4 °F 86.3 °F 69.8 °F 66% 29.89 in 6.2 mi East 16.1 mph 19.6 mph N/A Thunderstorm Mostly Cloudy
2:14 PM 78.8 °F - 68.0 °F 69% 29.89 in 6.2 mi East 21.9 mph 28.8 mph N/A Thunderstorm Thunderstorm
2:20 PM 78.8 °F - 69.8 °F 74% 29.89 in 6.2 mi ENE 26.5 mph 33.4 mph N/A Rain , Thunderstorm Light Thunderstorms and Rain
2:25 PM 77.0 °F - 69.8 °F 78% 29.91 in 1.7 mi ENE 11.5 mph 33.4 mph N/A Rain , Thunderstorm Heavy Thunderstorms and Rain
2:29 PM 73.4 °F - 69.8 °F 88% 29.91 in 1.0 mi NE 11.5 mph 33.4 mph N/A Rain Heavy Rain
2:34 PM 73.4 °F - 66.2 °F 78% 29.90 in 1.0 mi Variable 3.5 mph 20.7 mph N/A Rain Heavy Rain
2:39 PM 73.4 °F - 68.0 °F 83% 29.89 in 1.7 mi ENE 3.5 mph 20.7 mph N/A Rain Light Rain
2:44 PM 73.4 °F - 69.8 °F 88% 29.88 in 3.7 mi ESE 6.9 mph - N/A Rain Light Rain
2:49 PM 73.4 °F - 69.8 °F 88% 29.88 in 6.2 mi ESE 5.8 mph - N/A Rain Light Rain
2:55 PM 73.4 °F - 69.8 °F 88% 29.87 in 6.2 mi East 8.1 mph - N/A   Mostly Cloudy
2:58 PM 73.2 °F - 70.5 °F 91% 29.77 in 6.2 mi East 6.9 mph - 0.45 in   Mostly Cloudy
3:58 PM 75.0 °F - 70.7 °F 86% 29.77 in 6.2 mi SSE 8.1 mph - 0.00 in   Clear
4:34 PM 77.0 °F - 69.8 °F 78% 29.89 in 6.2 mi NNE 11.5 mph 17.3 mph N/A Rain Light Rain
4:58 PM 76.5 °F - 68.4 °F 76% 29.78 in 6.2 mi ENE 3.5 mph - 0.00 in Rain Light Rain
4:59 PM 77.0 °F - 69.8 °F 78% 29.89 in 6.2 mi East 3.5 mph - N/A   Overcast
5:58 PM 75.6 °F - 70.0 °F 83% 29.81 in 6.2 mi ESE 4.6 mph - 0.00 in   Partly Cloudy
6:00 PM 74 °F - 71 °F 87%  in 6 mi South 4.6 mph - -   Partly Cloudy
6:58 PM 73.8 °F - 70.3 °F 89% 29.85 in 6.2 mi North 8.1 mph - N/A   Scattered Clouds
7:43 PM 71.6 °F - 69.8 °F 94% 29.97 in 6.2 mi NW 4.6 mph - N/A   Mostly Cloudy
7:58 PM 72.0 °F - 70.0 °F 93% 29.88 in 6.2 mi North 10.4 mph - N/A   Overcast
8:03 PM 71.6 °F - 69.8 °F 94% 29.98 in 6.2 mi North 9.2 mph - N/A   Overcast
8:19 PM 71.6 °F - 68.0 °F 88% 29.99 in 6.2 mi West 3.5 mph - N/A Rain Light Rain
8:29 PM 71.6 °F - 69.8 °F 94% 29.99 in 3.7 mi WNW 5.8 mph - N/A Rain Light Rain
8:34 PM 71.6 °F - 69.8 °F 94% 29.99 in 6.2 mi WSW 6.9 mph - N/A Rain Light Rain
8:43 PM 71.6 °F - 69.8 °F 94% 30.00 in 6.2 mi WSW 3.5 mph - N/A   Overcast
8:45 PM 71.6 °F - 69.8 °F 94% 30.00 in 6.2 mi WSW 2.3 mph - N/A Thunderstorm Thunderstorm
8:56 PM 71.6 °F - 69.8 °F 94% 30.00 in 6.2 mi Variable 1.2 mph - N/A Rain , Thunderstorm Light Thunderstorms and Rain
8:58 PM 71.2 °F - 70.0 °F 96% 29.89 in 6.2 mi Variable 1.2 mph - 0.03 in Rain , Thunderstorm Light Thunderstorms and Rain
9:00 PM 71.6 °F - 69.8 °F 94% 30.01 in 6.2 mi ESE 5.8 mph - N/A Rain , Thunderstorm Light Rain
9:15 PM 71.6 °F - 69.8 °F 94% 30.02 in 1.0 mi SSE 4.6 mph - N/A Rain Heavy Rain
9:20 PM 71.6 °F - 69.8 °F 94% 30.02 in 0.7 mi SSE 3.5 mph - N/A Rain Heavy Rain
9:25 PM 71.6 °F - 69.8 °F 94% 30.01 in 1.0 mi SE 2.3 mph - N/A Rain Heavy Rain
9:40 PM 69.8 °F - 69.8 °F 100% 30.01 in 1.5 mi ESE 4.6 mph - N/A Rain , Thunderstorm Heavy Rain
9:45 PM 69.8 °F - 69.8 °F 100% 30.02 in 2.5 mi SE 3.5 mph - N/A Rain , Thunderstorm Rain
9:50 PM 69.8 °F - 69.8 °F 100% 30.02 in - SSE 4.6 mph - N/A Rain , Thunderstorm Light Rain
9:55 PM 69.8 °F - 69.8 °F 100% 30.02 in 3.7 mi South 4.6 mph - N/A Rain Light Rain
9:58 PM 70.5 °F - 70.2 °F 99% 29.91 in 5.0 mi South 4.6 mph - 0.83 in Rain Light Rain
10:03 PM 69.8 °F - 69.8 °F 100% 30.02 in 5.6 mi South 4.6 mph - N/A Rain Light Rain
10:23 PM 69.8 °F - 69.8 °F 100% 30.02 in 6.2 mi SW 4.6 mph - N/A Rain Light Rain
10:28 PM 69.8 °F - 69.8 °F 100% 30.03 in 6.2 mi WSW 3.5 mph - N/A Rain Light Rain
10:48 PM 69.8 °F - 69.8 °F 100% 30.03 in 6.2 mi ENE 4.6 mph - N/A   Overcast
10:58 PM 70.3 °F - 70.2 °F 99% 29.91 in 6.2 mi NE 3.5 mph - 0.03 in   Overcast
11:23 PM 71.6 °F - 69.8 °F 94% 30.01 in 6.2 mi East 3.5 mph - N/A Rain Light Rain
11:50 PM 71.6 °F - 69.8 °F 94% 30.01 in 6.2 mi WSW 3.5 mph - N/A   Overcast
11:58 PM 70.9 °F - 70.5 °F 99% 29.88 in 6.2 mi WSW 3.5 mph - 0.01 in   Overcast